Year,Month,Day,Hour,Minute,Value (Times are PST for temperature in C)
2016,10,18,00,00,8.40
2016,10,18,00,01,8.30
2016,10,18,00,02,8.40
2016,10,18,00,03,8.40
2016,10,18,00,04,8.40
2016,10,18,00,05,8.30
2016,10,18,00,06,8.30
2016,10,18,00,07,8.40
2016,10,18,00,08,8.30
2016,10,18,00,09,8.30
2016,10,18,00,10,8.30
2016,10,18,00,11,8.30
2016,10,18,00,12,8.30
2016,10,18,00,13,8.30
2016,10,18,00,14,8.30
2016,10,18,00,15,8.30
2016,10,18,00,16,8.30
2016,10,18,00,17,8.30
2016,10,18,00,18,8.30
2016,10,18,00,19,8.30
2016,10,18,00,20,8.30
2016,10,18,00,21,8.30
2016,10,18,00,22,8.30
2016,10,18,00,23,8.30
2016,10,18,00,24,8.30
2016,10,18,00,25,8.30
2016,10,18,00,26,8.30
2016,10,18,00,27,8.30
2016,10,18,00,28,8.30
2016,10,18,00,29,8.30
2016,10,18,00,30,8.30
2016,10,18,00,31,8.30
2016,10,18,00,32,8.30
2016,10,18,00,33,8.30
2016,10,18,00,34,8.30
2016,10,18,00,35,8.30
2016,10,18,00,36,8.30
2016,10,18,00,37,8.30
2016,10,18,00,38,8.30
2016,10,18,00,39,8.30
2016,10,18,00,40,8.30
2016,10,18,00,41,8.30
2016,10,18,00,42,8.30
2016,10,18,00,43,8.30
2016,10,18,00,44,8.30
2016,10,18,00,45,8.30
2016,10,18,00,46,8.30
2016,10,18,00,47,8.30
2016,10,18,00,48,8.30
2016,10,18,00,49,8.30
2016,10,18,00,50,8.30
2016,10,18,00,51,8.30
2016,10,18,00,52,8.30
2016,10,18,00,53,8.30
2016,10,18,00,54,8.30
2016,10,18,00,55,8.30
2016,10,18,00,56,8.30
2016,10,18,00,57,8.30
2016,10,18,00,58,8.30
2016,10,18,00,59,8.30
2016,10,18,01,00,8.30
2016,10,18,01,01,8.30
2016,10,18,01,02,8.30
2016,10,18,01,03,8.30
2016,10,18,01,04,8.30
2016,10,18,01,05,8.30
2016,10,18,01,06,8.30
2016,10,18,01,07,8.30
2016,10,18,01,08,8.30
2016,10,18,01,09,8.30
2016,10,18,01,10,8.30
2016,10,18,01,11,8.30
2016,10,18,01,12,8.30
2016,10,18,01,13,8.30
2016,10,18,01,14,8.30
2016,10,18,01,15,8.30
2016,10,18,01,16,8.30
2016,10,18,01,17,8.30
2016,10,18,01,18,8.30
2016,10,18,01,19,8.30
2016,10,18,01,20,8.30
2016,10,18,01,21,8.30
2016,10,18,01,22,8.30
2016,10,18,01,23,8.30
2016,10,18,01,24,8.30
2016,10,18,01,25,8.30
2016,10,18,01,26,8.30
2016,10,18,01,27,8.30
2016,10,18,01,28,8.30
2016,10,18,01,29,8.30
2016,10,18,01,30,8.30
2016,10,18,01,31,8.30
2016,10,18,01,32,8.30
2016,10,18,01,33,8.30
2016,10,18,01,34,8.30
2016,10,18,01,35,8.30
2016,10,18,01,36,8.30
2016,10,18,01,37,8.30
2016,10,18,01,38,8.30
2016,10,18,01,39,8.30
2016,10,18,01,40,8.20
2016,10,18,01,41,8.20
2016,10,18,01,42,8.20
2016,10,18,01,43,8.20
2016,10,18,01,44,8.20
2016,10,18,01,45,8.20
2016,10,18,01,46,8.20
2016,10,18,01,47,8.20
2016,10,18,01,48,8.20
2016,10,18,01,49,8.20
2016,10,18,01,50,8.20
2016,10,18,01,51,8.20
2016,10,18,01,52,8.20
2016,10,18,01,53,8.20
2016,10,18,01,54,8.20
2016,10,18,01,55,8.20
2016,10,18,01,56,8.20
2016,10,18,01,57,8.20
2016,10,18,01,58,8.20
2016,10,18,01,59,8.20
2016,10,18,02,00,8.20
2016,10,18,02,01,8.20
2016,10,18,02,02,8.20
2016,10,18,02,03,8.20
2016,10,18,02,04,8.20
2016,10,18,02,05,8.20
2016,10,18,02,06,8.20
2016,10,18,02,07,8.20
2016,10,18,02,08,8.20
2016,10,18,02,09,8.20
2016,10,18,02,10,8.20
2016,10,18,02,11,8.20
2016,10,18,02,12,8.20
2016,10,18,02,13,8.20
2016,10,18,02,14,8.20
2016,10,18,02,15,8.20
2016,10,18,02,16,8.20
2016,10,18,02,17,8.20
2016,10,18,02,18,8.20
2016,10,18,02,19,8.20
2016,10,18,02,20,8.20
2016,10,18,02,21,8.20
2016,10,18,02,22,8.20
2016,10,18,02,23,8.20
2016,10,18,02,24,8.20
2016,10,18,02,25,8.20
2016,10,18,02,26,8.20
2016,10,18,02,27,8.20
2016,10,18,02,28,8.20
2016,10,18,02,29,8.20
2016,10,18,02,30,8.20
2016,10,18,02,31,8.20
2016,10,18,02,32,8.20
2016,10,18,02,33,8.20
2016,10,18,02,34,8.20
2016,10,18,02,35,8.20
2016,10,18,02,36,8.20
2016,10,18,02,37,8.20
2016,10,18,02,38,8.20
2016,10,18,02,39,8.20
2016,10,18,02,40,8.20
2016,10,18,02,41,8.20
2016,10,18,02,42,8.20
2016,10,18,02,43,8.20
2016,10,18,02,44,8.20
2016,10,18,02,45,8.20
2016,10,18,02,46,8.20
2016,10,18,02,47,8.10
2016,10,18,02,48,8.10
2016,10,18,02,49,8.10
2016,10,18,02,50,8.10
2016,10,18,02,51,8.10
2016,10,18,02,52,8.10
2016,10,18,02,53,8.10
2016,10,18,02,54,8.10
2016,10,18,02,55,8.10
2016,10,18,02,56,8.10
2016,10,18,02,57,8.10
2016,10,18,02,58,8.10
2016,10,18,02,59,8.10
2016,10,18,03,00,8.10
2016,10,18,03,01,8.10
2016,10,18,03,02,8.10
2016,10,18,03,06,8.00
2016,10,18,03,07,8.00
2016,10,18,03,08,8.00
2016,10,18,03,09,8.00
2016,10,18,03,10,8.00
2016,10,18,03,11,8.00
2016,10,18,03,12,8.00
2016,10,18,03,13,8.00
2016,10,18,03,14,8.00
2016,10,18,03,15,8.00
2016,10,18,03,16,8.00
2016,10,18,03,17,7.90
2016,10,18,03,18,7.90
2016,10,18,03,19,8.00
2016,10,18,03,20,8.00
2016,10,18,03,21,7.90
2016,10,18,03,22,7.90
2016,10,18,03,23,7.90
2016,10,18,03,24,7.90
2016,10,18,03,25,7.90
2016,10,18,03,26,7.90
2016,10,18,03,27,7.90
2016,10,18,03,28,7.90
2016,10,18,03,29,7.90
2016,10,18,03,30,7.90
2016,10,18,03,31,7.90
2016,10,18,03,32,7.90
2016,10,18,03,33,7.90
2016,10,18,03,34,7.90
2016,10,18,03,35,7.90
2016,10,18,03,36,7.90
2016,10,18,03,37,7.90
2016,10,18,03,38,7.90
2016,10,18,03,39,7.90
2016,10,18,03,40,7.90
2016,10,18,03,41,7.90
2016,10,18,03,42,7.90
2016,10,18,03,43,7.90
2016,10,18,03,44,7.90
2016,10,18,03,45,7.80
2016,10,18,03,46,7.80
2016,10,18,03,47,7.80
2016,10,18,03,48,7.80
2016,10,18,03,49,7.80
2016,10,18,03,50,7.80
2016,10,18,03,51,7.80
2016,10,18,03,52,7.80
2016,10,18,03,53,7.80
2016,10,18,03,54,7.80
2016,10,18,03,55,7.80
2016,10,18,03,56,7.80
2016,10,18,03,57,7.80
2016,10,18,03,58,7.80
2016,10,18,03,59,7.80
2016,10,18,04,00,7.80
2016,10,18,04,01,7.80
2016,10,18,04,02,7.80
2016,10,18,04,03,7.80
2016,10,18,04,04,7.80
2016,10,18,04,05,7.80
2016,10,18,04,06,7.80
2016,10,18,04,07,7.80
2016,10,18,04,08,7.80
2016,10,18,04,09,7.80
2016,10,18,04,10,7.80
2016,10,18,04,11,7.80
2016,10,18,04,12,7.80
2016,10,18,04,13,7.80
2016,10,18,04,14,7.80
2016,10,18,04,15,7.80
2016,10,18,04,16,7.80
2016,10,18,04,17,7.70
2016,10,18,04,18,7.70
2016,10,18,04,19,7.70
2016,10,18,04,20,7.70
2016,10,18,04,21,7.70
2016,10,18,04,22,7.70
2016,10,18,04,23,7.70
2016,10,18,04,24,7.70
2016,10,18,04,25,7.70
2016,10,18,04,26,7.70
2016,10,18,04,27,7.70
2016,10,18,04,28,7.70
2016,10,18,04,29,7.70
2016,10,18,04,30,7.70
2016,10,18,04,31,7.70
2016,10,18,04,32,7.70
2016,10,18,04,33,7.70
2016,10,18,04,34,7.70
2016,10,18,04,35,7.70
2016,10,18,04,36,7.70
2016,10,18,04,37,7.70
2016,10,18,04,38,7.70
2016,10,18,04,39,7.70
2016,10,18,04,40,7.70
2016,10,18,04,41,7.70
2016,10,18,04,42,7.70
2016,10,18,04,43,7.70
2016,10,18,04,44,7.70
2016,10,18,04,45,7.70
2016,10,18,04,46,7.70
2016,10,18,04,47,7.70
2016,10,18,04,48,7.70
2016,10,18,04,49,7.70
2016,10,18,04,50,7.70
2016,10,18,04,51,7.70
2016,10,18,04,52,7.70
2016,10,18,04,53,7.70
2016,10,18,04,54,7.70
2016,10,18,04,55,7.70
2016,10,18,04,56,7.70
2016,10,18,04,57,7.70
2016,10,18,04,58,7.70
2016,10,18,04,59,7.70
2016,10,18,05,00,7.60
2016,10,18,05,01,7.60
2016,10,18,05,02,7.60
2016,10,18,05,03,7.60
2016,10,18,05,04,7.60
2016,10,18,05,05,7.60
2016,10,18,05,06,7.60
2016,10,18,05,07,7.50
2016,10,18,05,08,7.50
2016,10,18,05,09,7.50
2016,10,18,05,10,7.50
2016,10,18,05,11,7.40
2016,10,18,05,12,7.40
2016,10,18,05,13,7.40
2016,10,18,05,14,7.40
2016,10,18,05,15,7.40
2016,10,18,05,16,7.40
2016,10,18,05,17,7.40
2016,10,18,05,18,7.30
2016,10,18,05,19,7.30
2016,10,18,05,20,7.30
2016,10,18,05,21,7.30
2016,10,18,05,22,7.30
2016,10,18,05,23,7.30
2016,10,18,05,24,7.20
2016,10,18,05,25,7.20
2016,10,18,05,26,7.20
2016,10,18,05,27,7.20
2016,10,18,05,28,7.20
2016,10,18,05,29,7.20
2016,10,18,05,30,7.20
2016,10,18,05,31,7.20
2016,10,18,05,32,7.20
2016,10,18,05,33,7.20
2016,10,18,05,34,7.20
2016,10,18,05,35,7.20
2016,10,18,05,36,7.20
2016,10,18,05,37,7.20
2016,10,18,05,38,7.20
2016,10,18,05,39,7.10
2016,10,18,05,40,7.10
2016,10,18,05,41,7.10
2016,10,18,05,42,7.10
2016,10,18,05,43,7.10
2016,10,18,05,44,7.10
2016,10,18,05,45,7.10
2016,10,18,05,46,7.10
2016,10,18,05,47,7.10
2016,10,18,05,48,7.00
2016,10,18,05,49,7.00
2016,10,18,05,50,7.00
2016,10,18,05,51,7.00
2016,10,18,05,52,7.00
2016,10,18,05,53,6.90
2016,10,18,05,54,6.90
2016,10,18,05,55,6.90
2016,10,18,05,56,6.90
2016,10,18,05,57,6.90
2016,10,18,05,58,6.90
2016,10,18,05,59,6.90
2016,10,18,06,00,6.90
2016,10,18,06,01,6.90
2016,10,18,06,02,6.90
2016,10,18,06,03,6.90
2016,10,18,06,04,6.90
2016,10,18,06,05,6.80
2016,10,18,06,06,6.80
2016,10,18,06,07,6.80
2016,10,18,06,08,6.80
2016,10,18,06,09,6.80
2016,10,18,06,10,6.80
2016,10,18,06,11,6.80
2016,10,18,06,12,6.80
2016,10,18,06,13,6.80
2016,10,18,06,14,6.80
2016,10,18,06,15,6.80
2016,10,18,06,16,6.80
2016,10,18,06,17,6.80
2016,10,18,06,18,6.80
2016,10,18,06,19,6.80
2016,10,18,06,20,6.80
2016,10,18,06,21,6.70
2016,10,18,06,22,6.70
2016,10,18,06,23,6.70
2016,10,18,06,24,6.70
2016,10,18,06,25,6.70
2016,10,18,06,26,6.70
2016,10,18,06,27,6.70
2016,10,18,06,28,6.70
2016,10,18,06,29,6.70
2016,10,18,06,30,6.70
2016,10,18,06,31,6.70
2016,10,18,06,32,6.70
2016,10,18,06,33,6.70
2016,10,18,06,34,6.70
2016,10,18,06,35,6.70
2016,10,18,06,36,6.70
2016,10,18,06,37,6.70
2016,10,18,06,38,6.80
2016,10,18,06,39,6.80
2016,10,18,06,40,6.80
2016,10,18,06,41,6.80
2016,10,18,06,42,6.80
2016,10,18,06,43,6.80
2016,10,18,06,44,6.80
2016,10,18,06,45,6.80
2016,10,18,06,46,6.80
2016,10,18,06,47,6.80
2016,10,18,06,48,6.80
2016,10,18,06,49,6.80
2016,10,18,06,50,6.80
2016,10,18,06,51,6.80
2016,10,18,06,52,6.80
2016,10,18,06,53,6.80
2016,10,18,06,54,6.80
2016,10,18,06,55,6.80
2016,10,18,06,56,6.80
2016,10,18,06,57,6.80
2016,10,18,06,58,6.80
2016,10,18,06,59,6.80
2016,10,18,07,00,6.80
2016,10,18,07,01,6.80
2016,10,18,07,02,6.70
2016,10,18,07,03,6.80
2016,10,18,07,04,6.70
2016,10,18,07,05,6.70
2016,10,18,07,06,6.70
2016,10,18,07,07,6.70
2016,10,18,07,08,6.70
2016,10,18,07,09,6.70
2016,10,18,07,10,6.70
2016,10,18,07,11,6.70
2016,10,18,07,12,6.70
2016,10,18,07,13,6.70
2016,10,18,07,14,6.70
2016,10,18,07,15,6.70
2016,10,18,07,16,6.70
2016,10,18,07,17,6.70
2016,10,18,07,18,6.70
2016,10,18,07,19,6.70
2016,10,18,07,20,6.70
2016,10,18,07,21,6.70
2016,10,18,07,22,6.70
2016,10,18,07,23,6.70
2016,10,18,07,24,6.70
2016,10,18,07,25,6.70
2016,10,18,07,26,6.70
2016,10,18,07,27,6.70
2016,10,18,07,28,6.70
2016,10,18,07,29,6.70
2016,10,18,07,30,6.70
2016,10,18,07,31,6.70
2016,10,18,07,32,6.70
2016,10,18,07,33,6.70
2016,10,18,07,34,6.70
2016,10,18,07,35,6.70
2016,10,18,07,36,6.70
2016,10,18,07,37,6.70
2016,10,18,07,38,6.70
2016,10,18,07,39,6.70
2016,10,18,07,40,6.70
2016,10,18,07,41,6.70
2016,10,18,07,42,6.70
2016,10,18,07,43,6.70
2016,10,18,07,44,6.70
2016,10,18,07,45,6.70
2016,10,18,07,46,6.70
2016,10,18,07,47,6.70
2016,10,18,07,48,6.70
2016,10,18,07,49,6.70
2016,10,18,07,50,6.70
2016,10,18,07,51,6.70
2016,10,18,07,52,6.70
2016,10,18,07,53,6.70
2016,10,18,07,54,6.70
2016,10,18,07,55,6.70
2016,10,18,07,56,6.70
2016,10,18,07,57,6.70
2016,10,18,07,58,6.80
2016,10,18,07,59,6.80
2016,10,18,08,00,6.80
2016,10,18,08,01,6.80
2016,10,18,08,02,6.80
2016,10,18,08,03,6.80
2016,10,18,08,04,6.80
2016,10,18,08,05,6.80
2016,10,18,08,06,6.80
2016,10,18,08,07,6.80
2016,10,18,08,08,6.80
2016,10,18,08,09,6.80
2016,10,18,08,10,6.80
2016,10,18,08,11,6.90
2016,10,18,08,12,6.90
2016,10,18,08,13,6.90
2016,10,18,08,14,6.90
2016,10,18,08,15,6.90
2016,10,18,08,16,6.90
2016,10,18,08,17,6.90
2016,10,18,08,18,6.90
2016,10,18,08,19,7.00
2016,10,18,08,20,7.00
2016,10,18,08,21,7.00
2016,10,18,08,22,7.00
2016,10,18,08,23,7.10
2016,10,18,08,24,7.10
2016,10,18,08,25,7.10
2016,10,18,08,26,7.10
2016,10,18,08,27,7.10
2016,10,18,08,28,7.10
2016,10,18,08,29,7.10
2016,10,18,08,30,7.20
2016,10,18,08,31,7.20
2016,10,18,08,32,7.20
2016,10,18,08,33,7.20
2016,10,18,08,34,7.20
2016,10,18,08,35,7.20
2016,10,18,08,36,7.20
2016,10,18,08,37,7.20
2016,10,18,08,38,7.20
2016,10,18,08,39,7.20
2016,10,18,08,40,7.20
2016,10,18,08,41,7.20
2016,10,18,08,42,7.20
2016,10,18,08,43,7.20
2016,10,18,08,44,7.20
2016,10,18,08,45,7.30
2016,10,18,08,46,7.30
2016,10,18,08,47,7.30
2016,10,18,08,48,7.30
2016,10,18,08,49,7.30
2016,10,18,08,50,7.30
2016,10,18,08,51,7.30
2016,10,18,08,52,7.30
2016,10,18,08,53,7.30
2016,10,18,08,54,7.30
2016,10,18,08,55,7.40
2016,10,18,08,56,7.40
2016,10,18,08,57,7.40
2016,10,18,08,58,7.40
2016,10,18,08,59,7.40
2016,10,18,09,00,7.40
2016,10,18,09,01,7.50
2016,10,18,09,02,7.50
2016,10,18,09,03,7.50
2016,10,18,09,04,7.50
2016,10,18,09,05,7.60
2016,10,18,09,06,7.60
2016,10,18,09,07,7.60
2016,10,18,09,08,7.60
2016,10,18,09,09,7.60
2016,10,18,09,10,7.70
2016,10,18,09,11,7.70
2016,10,18,09,12,7.70
2016,10,18,09,13,7.70
2016,10,18,09,14,7.80
2016,10,18,09,15,7.80
2016,10,18,09,16,7.80
2016,10,18,09,17,7.90
2016,10,18,09,18,7.90
2016,10,18,09,19,7.90
2016,10,18,09,20,7.90
2016,10,18,09,21,8.00
2016,10,18,09,22,8.00
2016,10,18,09,23,8.00
2016,10,18,09,24,8.10
2016,10,18,09,25,8.10
2016,10,18,09,26,8.10
2016,10,18,09,27,8.10
2016,10,18,09,28,8.10
2016,10,18,09,29,8.20
2016,10,18,09,30,8.20
2016,10,18,09,31,8.20
2016,10,18,09,32,8.20
2016,10,18,09,33,8.20
2016,10,18,09,34,8.30
2016,10,18,09,35,8.30
2016,10,18,09,36,8.30
2016,10,18,09,37,8.30
2016,10,18,09,38,8.30
2016,10,18,09,39,8.40
2016,10,18,09,40,8.40
2016,10,18,09,41,8.40
2016,10,18,09,42,8.40
2016,10,18,09,43,8.40
2016,10,18,09,44,8.50
2016,10,18,09,45,8.50
2016,10,18,09,46,8.50
2016,10,18,09,47,8.60
2016,10,18,09,48,8.60
2016,10,18,09,49,8.60
2016,10,18,09,50,8.60
2016,10,18,09,51,8.60
2016,10,18,09,52,8.70
2016,10,18,09,53,8.70
2016,10,18,09,54,8.70
2016,10,18,09,55,8.70
2016,10,18,09,56,8.80
2016,10,18,09,57,8.80
2016,10,18,09,58,8.80
2016,10,18,09,59,8.80
2016,10,18,10,00,8.90
2016,10,18,10,01,8.90
2016,10,18,10,02,8.90
2016,10,18,10,03,8.90
2016,10,18,10,04,8.90
2016,10,18,10,05,8.90
2016,10,18,10,06,9.00
2016,10,18,10,07,9.00
2016,10,18,10,08,9.00
2016,10,18,10,09,9.10
2016,10,18,10,10,9.10
2016,10,18,10,11,9.10
2016,10,18,10,12,9.10
2016,10,18,10,13,9.20
2016,10,18,10,14,9.20
2016,10,18,10,15,9.20
2016,10,18,10,16,9.20
2016,10,18,10,17,9.20
2016,10,18,10,18,9.30
2016,10,18,10,19,9.30
2016,10,18,10,20,9.30
2016,10,18,10,21,9.30
2016,10,18,10,22,9.30
2016,10,18,10,23,9.30
2016,10,18,10,24,9.30
2016,10,18,10,25,9.30
2016,10,18,10,26,9.30
2016,10,18,10,27,9.30
2016,10,18,10,28,9.30
2016,10,18,10,29,9.30
2016,10,18,10,30,9.30
2016,10,18,10,31,9.30
2016,10,18,10,32,9.30
2016,10,18,10,33,9.40
2016,10,18,10,34,9.40
2016,10,18,10,35,9.40
2016,10,18,10,36,9.40
2016,10,18,10,37,9.40
2016,10,18,10,38,9.40
2016,10,18,10,39,9.40
2016,10,18,10,40,9.40
2016,10,18,10,41,9.40
2016,10,18,10,42,9.40
2016,10,18,10,43,9.40
2016,10,18,10,44,9.30
2016,10,18,10,45,9.40
2016,10,18,10,46,9.40
2016,10,18,10,47,9.40
2016,10,18,10,48,9.40
2016,10,18,10,49,9.40
2016,10,18,10,50,9.40
2016,10,18,10,51,9.40
2016,10,18,10,52,9.40
2016,10,18,10,53,9.40
2016,10,18,10,54,9.40
2016,10,18,10,55,9.40
2016,10,18,10,56,9.40
2016,10,18,10,57,9.50
2016,10,18,10,58,9.50
2016,10,18,10,59,9.50
2016,10,18,11,00,9.60
2016,10,18,11,01,9.60
2016,10,18,11,02,9.60
2016,10,18,11,03,9.60
2016,10,18,11,04,9.60
2016,10,18,11,05,9.60
2016,10,18,11,06,9.60
2016,10,18,11,07,9.60
2016,10,18,11,08,9.70
2016,10,18,11,09,9.70
2016,10,18,11,10,9.70
2016,10,18,11,11,9.70
2016,10,18,11,12,9.70
2016,10,18,11,13,9.70
2016,10,18,11,14,9.70
2016,10,18,11,15,9.70
2016,10,18,11,16,9.70
2016,10,18,11,17,9.70
2016,10,18,11,18,9.70
2016,10,18,11,19,9.70
2016,10,18,11,20,9.80
2016,10,18,11,21,9.80
2016,10,18,11,22,9.80
2016,10,18,11,23,9.80
2016,10,18,11,24,9.80
2016,10,18,11,25,9.80
2016,10,18,11,26,9.80
2016,10,18,11,27,9.80
2016,10,18,11,28,9.80
2016,10,18,11,29,9.80
2016,10,18,11,30,9.80
2016,10,18,11,31,9.80
2016,10,18,11,32,9.90
2016,10,18,11,33,9.90
2016,10,18,11,34,9.90
2016,10,18,11,35,9.90
2016,10,18,11,36,9.90
2016,10,18,11,37,9.90
2016,10,18,11,38,9.90
2016,10,18,11,39,9.90
2016,10,18,11,40,9.90
2016,10,18,11,41,9.90
2016,10,18,11,42,9.90
2016,10,18,11,43,9.90
2016,10,18,11,44,9.80
2016,10,18,11,45,9.80
2016,10,18,11,46,9.80
2016,10,18,11,47,9.80
2016,10,18,11,48,9.80
2016,10,18,11,49,9.80
2016,10,18,11,50,9.80
2016,10,18,11,51,9.80
2016,10,18,11,52,9.80
2016,10,18,11,53,9.80
2016,10,18,11,54,9.80
2016,10,18,11,55,9.80
2016,10,18,11,56,9.80
2016,10,18,11,57,9.80
2016,10,18,11,58,9.80
2016,10,18,11,59,9.80
2016,10,18,12,00,9.80
2016,10,18,12,01,9.80
2016,10,18,12,02,9.80
2016,10,18,12,03,9.80
2016,10,18,12,04,9.70
2016,10,18,12,05,9.70
2016,10,18,12,06,9.70
2016,10,18,12,07,9.70
2016,10,18,12,08,9.70
2016,10,18,12,09,9.70
2016,10,18,12,10,9.70
2016,10,18,12,11,9.70
2016,10,18,12,12,9.70
2016,10,18,12,13,9.70
2016,10,18,12,14,9.70
2016,10,18,12,15,9.70
2016,10,18,12,16,9.70
2016,10,18,12,17,9.70
2016,10,18,12,18,9.70
2016,10,18,12,19,9.70
2016,10,18,12,20,9.80
2016,10,18,12,21,9.80
2016,10,18,12,22,9.80
2016,10,18,12,23,9.80
2016,10,18,12,24,9.80
2016,10,18,12,25,9.80
2016,10,18,12,26,9.80
2016,10,18,12,27,9.80
2016,10,18,12,28,9.80
2016,10,18,12,29,9.80
2016,10,18,12,30,9.80
2016,10,18,12,31,9.80
2016,10,18,12,32,9.80
2016,10,18,12,33,9.80
2016,10,18,12,34,9.80
2016,10,18,12,35,9.80
2016,10,18,12,36,9.80
2016,10,18,12,37,9.80
2016,10,18,12,38,9.80
2016,10,18,12,39,9.80
2016,10,18,12,40,9.80
2016,10,18,12,41,9.80
2016,10,18,12,42,9.80
2016,10,18,12,43,9.90
2016,10,18,12,44,9.90
2016,10,18,12,45,9.90
2016,10,18,12,46,9.90
2016,10,18,12,47,10.00
2016,10,18,12,48,10.00
2016,10,18,12,49,10.00
2016,10,18,12,50,10.10
2016,10,18,12,51,10.10
2016,10,18,12,52,10.10
2016,10,18,12,53,10.10
2016,10,18,12,54,10.10
2016,10,18,12,55,10.20
2016,10,18,12,56,10.20
2016,10,18,12,57,10.30
2016,10,18,12,58,10.30
2016,10,18,12,59,10.30
2016,10,18,13,00,10.30
2016,10,18,13,01,10.30
2016,10,18,13,02,10.40
2016,10,18,13,03,10.40
2016,10,18,13,04,10.40
2016,10,18,13,05,10.40
2016,10,18,13,06,10.40
2016,10,18,13,07,10.40
2016,10,18,13,08,10.40
2016,10,18,13,09,10.40
2016,10,18,13,10,10.40
2016,10,18,13,11,10.50
2016,10,18,13,12,10.50
2016,10,18,13,13,10.50
2016,10,18,13,14,10.50
2016,10,18,13,15,10.60
2016,10,18,13,16,10.60
2016,10,18,13,17,10.70
2016,10,18,13,18,10.70
2016,10,18,13,19,10.70
2016,10,18,13,20,10.70
2016,10,18,13,21,10.70
2016,10,18,13,22,10.70
2016,10,18,13,23,10.70
2016,10,18,13,24,10.70
2016,10,18,13,25,10.70
2016,10,18,13,26,10.70
2016,10,18,13,27,10.70
2016,10,18,13,28,10.80
2016,10,18,13,29,10.80
2016,10,18,13,30,10.80
2016,10,18,13,31,10.80
2016,10,18,13,32,10.90
2016,10,18,13,33,10.90
2016,10,18,13,34,10.90
2016,10,18,13,35,10.90
2016,10,18,13,36,10.90
2016,10,18,13,37,10.90
2016,10,18,13,38,11.00
2016,10,18,13,39,11.00
2016,10,18,13,40,11.00
2016,10,18,13,41,11.10
2016,10,18,13,42,11.10
2016,10,18,13,43,11.10
2016,10,18,13,44,11.20
2016,10,18,13,45,11.20
2016,10,18,13,46,11.20
2016,10,18,13,47,11.20
2016,10,18,13,48,11.20
2016,10,18,13,49,11.20
2016,10,18,13,50,11.20
2016,10,18,13,51,11.20
2016,10,18,13,52,11.20
2016,10,18,13,53,11.20
2016,10,18,13,54,11.20
2016,10,18,13,55,11.20
2016,10,18,13,56,11.30
2016,10,18,13,57,11.30
2016,10,18,13,58,11.30
2016,10,18,13,59,11.30
2016,10,18,14,00,11.30
2016,10,18,14,01,11.30
2016,10,18,14,02,11.30
2016,10,18,14,03,11.30
2016,10,18,14,04,11.30
2016,10,18,14,05,11.40
2016,10,18,14,06,11.40
2016,10,18,14,07,11.40
2016,10,18,14,08,11.40
2016,10,18,14,09,11.40
2016,10,18,14,10,11.40
2016,10,18,14,11,11.40
2016,10,18,14,12,11.40
2016,10,18,14,13,11.40
2016,10,18,14,14,11.50
2016,10,18,14,15,11.50
2016,10,18,14,16,11.50
2016,10,18,14,17,11.60
2016,10,18,14,18,11.60
2016,10,18,14,19,11.60
2016,10,18,14,20,11.60
2016,10,18,14,21,11.60
2016,10,18,14,22,11.60
2016,10,18,14,23,11.60
2016,10,18,14,24,11.60
2016,10,18,14,25,11.60
2016,10,18,14,26,11.70
2016,10,18,14,27,11.70
2016,10,18,14,28,11.70
2016,10,18,14,29,11.70
2016,10,18,14,30,11.80
2016,10,18,14,31,11.80
2016,10,18,14,32,11.80
2016,10,18,14,33,11.90
2016,10,18,14,34,11.90
2016,10,18,14,35,11.90
2016,10,18,14,36,11.90
2016,10,18,14,37,11.90
2016,10,18,14,38,11.90
2016,10,18,14,39,12.00
2016,10,18,14,40,12.00
2016,10,18,14,41,12.10
2016,10,18,14,42,12.10
2016,10,18,14,43,12.10
2016,10,18,14,44,12.10
2016,10,18,14,45,12.20
2016,10,18,14,46,12.20
2016,10,18,14,47,12.20
2016,10,18,14,48,12.30
2016,10,18,14,49,12.30
2016,10,18,14,50,12.40
2016,10,18,14,51,12.40
2016,10,18,14,52,12.50
2016,10,18,14,53,12.50
2016,10,18,14,54,12.60
2016,10,18,14,55,12.70
2016,10,18,14,56,12.70
2016,10,18,14,57,12.80
2016,10,18,14,58,12.80
2016,10,18,14,59,12.80
2016,10,18,15,00,12.80
2016,10,18,15,01,12.80
2016,10,18,15,02,12.80
2016,10,18,15,03,12.80
2016,10,18,15,04,12.80
2016,10,18,15,05,12.80
2016,10,18,15,06,12.90
2016,10,18,15,07,12.90
2016,10,18,15,08,12.90
2016,10,18,15,09,12.90
2016,10,18,15,10,12.90
2016,10,18,15,11,12.90
2016,10,18,15,12,12.90
2016,10,18,15,13,12.90
2016,10,18,15,14,12.90
2016,10,18,15,15,13.00
2016,10,18,15,16,13.00
2016,10,18,15,17,13.00
2016,10,18,15,18,13.10
2016,10,18,15,19,13.10
2016,10,18,15,20,13.10
2016,10,18,15,21,13.10
2016,10,18,15,22,13.10
2016,10,18,15,23,13.10
2016,10,18,15,24,13.10
2016,10,18,15,25,13.20
2016,10,18,15,26,13.20
2016,10,18,15,27,13.20
2016,10,18,15,28,13.20
2016,10,18,15,29,13.20
2016,10,18,15,30,13.20
2016,10,18,15,31,13.20
2016,10,18,15,32,13.20
2016,10,18,15,33,13.20
2016,10,18,15,34,13.10
2016,10,18,15,35,13.10
2016,10,18,15,36,13.10
2016,10,18,15,37,13.10
2016,10,18,15,38,13.00
2016,10,18,15,39,13.00
2016,10,18,15,40,13.00
2016,10,18,15,41,13.00
2016,10,18,15,42,12.90
2016,10,18,15,43,12.90
2016,10,18,15,44,12.90
2016,10,18,15,45,12.90
2016,10,18,15,46,12.90
2016,10,18,15,47,12.90
2016,10,18,15,48,12.90
2016,10,18,15,49,12.90
2016,10,18,15,50,13.00
2016,10,18,15,51,13.00
2016,10,18,15,52,13.00
2016,10,18,15,53,13.00
2016,10,18,15,54,13.10
2016,10,18,15,55,13.10
2016,10,18,15,56,13.10
2016,10,18,15,57,13.10
2016,10,18,15,58,13.10
2016,10,18,15,59,13.10
2016,10,18,16,00,13.10
2016,10,18,16,01,13.10
2016,10,18,16,02,13.10
2016,10,18,16,03,13.10
2016,10,18,16,04,13.00
2016,10,18,16,05,13.00
2016,10,18,16,06,12.90
2016,10,18,16,07,12.90
2016,10,18,16,08,12.90
2016,10,18,16,09,12.90
2016,10,18,16,10,12.80
2016,10,18,16,11,12.80
2016,10,18,16,12,12.80
2016,10,18,16,13,12.80
2016,10,18,16,14,12.80
2016,10,18,16,15,12.80
2016,10,18,16,16,12.80
2016,10,18,16,17,12.80
2016,10,18,16,18,12.70
2016,10,18,16,19,12.70
2016,10,18,16,20,12.70
2016,10,18,16,21,12.70
2016,10,18,16,22,12.70
2016,10,18,16,23,12.70
2016,10,18,16,24,12.70
2016,10,18,16,25,12.70
2016,10,18,16,26,12.60
2016,10,18,16,27,12.70
2016,10,18,16,28,12.70
2016,10,18,16,29,12.70
2016,10,18,16,30,12.70
2016,10,18,16,31,12.70
2016,10,18,16,32,12.70
2016,10,18,16,33,12.70
2016,10,18,16,34,12.70
2016,10,18,16,35,12.70
2016,10,18,16,36,12.70
2016,10,18,16,37,12.70
2016,10,18,16,38,12.70
2016,10,18,16,39,12.70
2016,10,18,16,40,12.70
2016,10,18,16,41,12.70
2016,10,18,16,42,12.70
2016,10,18,16,43,12.70
2016,10,18,16,44,12.70
2016,10,18,16,45,12.70
2016,10,18,16,46,12.70
2016,10,18,16,47,12.70
2016,10,18,16,48,12.70
2016,10,18,16,49,12.70
2016,10,18,16,50,12.70
2016,10,18,16,51,12.70
2016,10,18,16,52,12.70
2016,10,18,16,53,12.80
2016,10,18,16,54,12.80
2016,10,18,16,55,12.80
2016,10,18,16,56,12.80
2016,10,18,16,57,12.80
2016,10,18,16,58,12.80
2016,10,18,16,59,12.80
2016,10,18,17,00,12.80
2016,10,18,17,01,12.70
2016,10,18,17,02,12.70
2016,10,18,17,03,12.70
2016,10,18,17,04,12.70
2016,10,18,17,05,12.70
2016,10,18,17,06,12.70
2016,10,18,17,07,12.70
2016,10,18,17,08,12.70
2016,10,18,17,09,12.70
2016,10,18,17,10,12.70
2016,10,18,17,11,12.70
2016,10,18,17,12,12.70
2016,10,18,17,13,12.70
2016,10,18,17,14,12.70
2016,10,18,17,15,12.60
2016,10,18,17,16,12.60
2016,10,18,17,17,12.60
2016,10,18,17,18,12.60
2016,10,18,17,19,12.60
2016,10,18,17,20,12.50
2016,10,18,17,21,12.50
2016,10,18,17,22,12.40
2016,10,18,17,23,12.40
2016,10,18,17,24,12.40
2016,10,18,17,25,12.40
2016,10,18,17,26,12.40
2016,10,18,17,27,12.30
2016,10,18,17,28,12.30
2016,10,18,17,29,12.30
2016,10,18,17,30,12.30
2016,10,18,17,31,12.30
2016,10,18,17,32,12.20
2016,10,18,17,33,12.20
2016,10,18,17,34,12.20
2016,10,18,17,35,12.10
2016,10,18,17,36,12.10
2016,10,18,17,37,12.10
2016,10,18,17,38,12.10
2016,10,18,17,39,12.10
2016,10,18,17,40,12.00
2016,10,18,17,41,11.90
2016,10,18,17,42,11.90
2016,10,18,17,43,11.90
2016,10,18,17,44,11.90
2016,10,18,17,45,11.80
2016,10,18,17,46,11.80
2016,10,18,17,47,11.80
2016,10,18,17,48,11.80
2016,10,18,17,49,11.80
2016,10,18,17,50,11.80
2016,10,18,17,51,11.80
2016,10,18,17,52,11.80
2016,10,18,17,53,11.70
2016,10,18,17,54,11.70
2016,10,18,17,55,11.70